Date,TemperatureHighF,TemperatureAvgF,TemperatureLowF,DewpointHighF,DewpointAvgF,DewpointLowF,HumidityHigh,HumidityAvg,HumidityLow,PressureMaxIn,PressureMinIn,WindSpeedMaxMPH,WindSpeedAvgMPH,GustSpeedMaxMPH,PrecipitationSumIn
2013-2-1,21.9,13.2,5.7,21.7,3.9,-0.9,99,66,52,30.38,29.93,17,8,17,0.76
2013-2-2,33.6,27.0,12.0,28.5,24.2,6.0,99,90,70,30.30,29.97,18,8,20,0.77
2013-2-3,27.9,23.3,18.9,24.2,17.9,14.8,93,80,63,30.08,29.93,14,7,16,0.00
2013-2-4,37.4,29.0,17.6,35.0,25.6,16.6,99,88,68,30.09,29.81,21,8,21,0.09
2013-2-5,39.0,33.6,29.8,35.2,32.1,29.6,99,94,80,29.93,29.83,7,2,8,0.12
2013-2-6,39.4,34.6,30.2,34.1,29.4,26.9,93,82,69,30.23,29.93,6,3,9,0.12
2013-2-7,64.9,49.6,30.4,39.7,33.8,27.3,93,62,35,30.19,29.89,11,4,14,0.12
2013-2-8,54.1,35.6,34.0,38.2,31.9,27.8,99,86,53,30.24,29.87,12,6,22,0.18
2013-2-9,47.1,33.8,22.5,22.4,20.6,19.1,88,61,37,30.40,30.24,8,3,9,0.18
2013-2-10,57.0,48.1,33.8,45.6,32.3,22.0,93,59,34,30.24,29.83,24,10,24,0.20
2013-2-11,52.9,49.1,42.1,50.0,34.0,28.3,92,58,43,30.02,29.79,35,16,40,0.21
2013-2-12,53.6,40.5,30.9,29.3,26.4,22.4,85,61,33,30.12,29.90,11,5,11,0.21
2013-2-13,38.3,32.6,30.7,33.8,30.6,26.2,99,93,64,29.89,29.75,8,3,10,0.07
2013-2-14,55.6,42.9,30.2,39.3,34.4,30.0,99,76,49,29.94,29.82,23,10,24,0.09
2013-2-15,46.6,34.3,26.8,34.6,28.3,22.3,90,79,52,30.13,29.94,14,5,14,0.09
2013-2-16,34.2,26.7,20.5,22.7,16.5,9.8,96,67,44,30.08,30.01,15,6,20,0.09
2013-2-17,37.6,27.3,14.0,14.8,8.1,0.5,94,51,23,30.21,30.08,11,4,15,0.09
2013-2-18,58.5,44.3,25.3,40.0,27.0,14.4,78,53,37,30.11,29.76,36,15,39,0.12
2013-2-19,46.4,33.3,26.2,42.1,27.5,14.9,99,80,61,30.07,29.75,26,14,30,0.19
2013-2-20,35.1,27.2,20.5,16.6,13.7,11.6,71,57,44,30.27,30.08,13,5,19,0.19
2013-2-21,36.0,28.6,18.7,23.6,19.9,14.2,84,70,60,30.32,30.11,14,6,16,0.19
2013-2-22,49.5,42.0,29.5,43.6,39.3,22.9,99,90,76,30.10,29.89,13,5,15,0.28
2013-2-23,52.3,40.8,32.4,36.6,27.5,24.5,89,61,38,29.98,29.88,11,4,14,0.28
2013-2-24,50.7,35.2,25.3,28.4,24.6,22.1,95,68,39,30.13,29.92,11,3,12,0.00
2013-2-25,51.1,36.7,23.9,28.3,23.9,21.5,93,63,40,30.14,29.87,14,6,16,0.00
2013-2-26,52.0,43.1,36.1,49.9,39.0,23.5,99,87,55,29.88,29.36,24,8,28,0.48
2013-2-27,41.2,39.6,38.3,40.9,39.3,38.0,99,99,98,29.57,29.52,17,11,24,0.01
2013-2-28,36.1,34.0,31.8,35.0,32.5,29.7,99,94,88,29.92,29.69,16,9,16,0.01